This is the latest recevied weather packets stored in our database for station/object DG8SF-13. If no packets are shown the sender has not sent any weather packets the latest 10 day(s).
| Time | Temp. | Humidity | Pressure | Rain* | Wind** | Luminosity | Snow |
|---|---|---|---|---|---|---|---|
| 1778092347 | 9.44° C | 95% | 1007.8 hPa | 0.51 mm | - | - | - |
| 1778092023 | 9.44° C | 95% | 1007.8 hPa | 0.51 mm | - | - | - |
| 1778091713 | 10° C | 95% | 1007.6 hPa | 0.51 mm | - | - | - |
| 1778091401 | 10° C | 95% | 1007.7 hPa | 0.51 mm | - | - | - |
| 1778091089 | 10° C | 95% | 1007.6 hPa | 0.51 mm | - | - | - |
| 1778090776 | 10° C | 95% | 1007.5 hPa | 0.51 mm | - | - | - |
| 1778090467 | 10° C | 95% | 1007.4 hPa | 0.51 mm | - | - | - |
| 1778090153 | 10.56° C | 95% | 1007.3 hPa | 0.51 mm | - | - | - |
| 1778089831 | 10.56° C | 95% | 1007.3 hPa | 0.76 mm | - | - | - |
| 1778089516 | 10.56° C | 94% | 1007.1 hPa | 0.76 mm | - | - | - |
| 1778089206 | 11.11° C | 95% | 1007.1 hPa | 0.51 mm | - | - | - |
| 1778088892 | 11.11° C | 95% | 1007.1 hPa | 0.51 mm | - | - | - |
| 1778088582 | 11.11° C | 95% | 1006.9 hPa | 0.51 mm | - | - | - |
| 1778088268 | 11.11° C | 95% | 1006.8 hPa | 0.76 mm | - | - | - |
| 1778087956 | 11.11° C | 95% | 1006.8 hPa | 0.76 mm | - | - | - |
| 1778087644 | 11.11° C | 95% | 1006.7 hPa | 0.76 mm | - | - | - |
| 1778087333 | 11.11° C | 95% | 1006.8 hPa | 1.27 mm | - | - | - |
| 1778087026 | 11.11° C | 94% | 1006.8 hPa | 2.03 mm | - | - | - |
| 1778086709 | 11.11° C | 94% | 1006.6 hPa | 2.03 mm | - | - | - |
| 1778086398 | 11.11° C | 94% | 1006.7 hPa | 2.29 mm | - | - | - |
| 1778086085 | 11.11° C | 94% | 1006.7 hPa | 3.3 mm | - | - | - |
| 1778085773 | 11.11° C | 94% | 1006.7 hPa | 4.32 mm | - | - | - |
| 1778085462 | 11.11° C | 94% | 1006.7 hPa | 4.83 mm | - | - | - |
| 1778085148 | 11.11° C | 94% | 1006.6 hPa | 4.83 mm | - | - | - |
| 1778084839 | 11.11° C | 94% | 1006.6 hPa | 4.83 mm | - | - | - |
* Rain latest hour (hover to see other rain measurements)
** Current wind speed in m/s (hover to see current wind gust speed)